This is the latest recevied weather packets stored in our database for station/object XQ6AK-15. If no packets are shown the sender has not sent any weather packets the latest 1 day(s).
| Time | Temp. | Humidity | Pressure | Rain* | Wind** | Luminosity | Snow |
|---|---|---|---|---|---|---|---|
| 1778034113 | 11.67° C | 99% | 1004.9 hPa | 3.05 mm | - | 0 W/m² | - |
| 1778033811 | 11.67° C | 99% | 1004.9 hPa | 3.05 mm | - | 0 W/m² | - |
| 1778033508 | 11.67° C | 99% | 1005 hPa | 1.78 mm | - | 0 W/m² | - |
| 1778032291 | 11.67° C | 99% | 1005.1 hPa | 1.78 mm | - | 0 W/m² | - |
| 1778031989 | 11.67° C | 99% | 1004.9 hPa | 3.05 mm | - | 0 W/m² | - |
| 1778031684 | 11.67° C | 99% | 1005.1 hPa | 3.05 mm | - | 0 W/m² | - |
| 1778031383 | 11.67° C | 99% | 1005 hPa | 3.05 mm | - | 0 W/m² | - |
| 1778031079 | 11.67° C | 99% | 1005 hPa | 1.27 mm | - | 0 W/m² | - |
| 1778030472 | 11.67° C | 99% | 1005.1 hPa | 3.05 mm | - | 0 W/m² | - |
| 1778030170 | 11.67° C | 99% | 1005.2 hPa | 3.05 mm | - | 0 W/m² | - |
| 1778029866 | 12.22° C | 99% | 1004.9 hPa | 3.05 mm | - | 0 W/m² | - |
| 1778029560 | 12.22° C | 99% | 1005.1 hPa | 1.27 mm | - | 0 W/m² | - |
| 1778028953 | 12.22° C | 99% | 1005 hPa | 4.83 mm | - | 0 W/m² | - |
| 1778028346 | 12.22° C | 99% | 1005.1 hPa | 3.05 mm | - | 0 W/m² | - |
| 1778028043 | 12.22° C | 99% | 1005.1 hPa | 1.27 mm | - | 0 W/m² | - |
| 1778027739 | 12.22° C | 99% | 1005.1 hPa | 3.05 mm | - | 0 W/m² | - |
| 1778027132 | 12.22° C | 99% | 1005 hPa | 3.05 mm | - | 0 W/m² | - |
| 1778026524 | 12.22° C | 99% | 1004.9 hPa | 1.27 mm | - | 0 W/m² | - |
| 1778026221 | 12.22° C | 99% | 1004.8 hPa | 0 mm | - | 0 W/m² | - |
| 1778024708 | 12.22° C | 99% | 1004.8 hPa | 4.83 mm | - | 0 W/m² | - |
| 1778024102 | 12.22° C | 99% | 1004.7 hPa | 4.32 mm | - | 0 W/m² | - |
| 1778023799 | 12.22° C | 99% | 1004.5 hPa | 3.05 mm | - | 0 W/m² | - |
| 1778023194 | 12.22° C | 99% | 1004.6 hPa | 3.05 mm | - | 0 W/m² | - |
| 1778022287 | 12.22° C | 99% | 1004.3 hPa | 6.1 mm | - | 0 W/m² | - |
| 1778021983 | 12.22° C | 99% | 1004.2 hPa | 4.83 mm | - | 0 W/m² | - |
* Rain latest hour (hover to see other rain measurements)
** Current wind speed in m/s (hover to see current wind gust speed)